DW6145 Weather Reports


Display with metric or nautical units.
time (UTC)temp
F
wind
direction
speed
MPH
gust
MPH
rain 1hr
in
rain 24hr
in
rain mn
in
humidity
%
barometer
mb
20260508021646 54 28 0.0 8.0 0.00 0.02 0.00 84 443.9
20260508021116 54 28 3.0 8.0 0.00 0.02 0.00 83 445.3
20260508020120 54 28 1.0 8.0 0.00 0.02 0.00 83 468.0
20260508014637 54 23 0.0 3.0 0.00 0.02 0.00 84 467.9
20260508014112 54 23 0.0 3.0 0.00 0.02 0.00 84 467.9
20260508012630 55 23 1.0 4.0 0.00 0.02 0.00 83 471.4
20260508011630 55 23 1.0 5.0 0.00 0.02 0.00 82 468.0
20260508010626 55 23 0.0 3.0 0.00 0.02 0.00 83 468.0
20260508005626 55 23 1.0 4.0 0.00 0.02 0.00 83 468.0
20260508004619 55 23 2.0 6.0 0.00 0.02 0.00 82 468.2
20260508004059 55 26 1.0 8.0 0.00 0.02 0.00 83 468.2
20260508002616 55 27 1.0 5.0 0.00 0.02 0.00 84 467.3
20260508001608 55 27 3.0 8.0 0.00 0.02 0.00 83 469.0
20260508000604 55 27 1.0 5.0 0.00 0.02 0.00 84 438.5
20260507235603 55 27 1.0 4.0 0.00 0.02 0.00 84 467.2
20260507234606 55 27 0.0 1.0 0.00 0.02 0.00 84 489.4
20260507233602 55 27 1.0 4.0 0.00 0.02 0.00 84 468.1
20260507232604 54 27 0.0 2.0 0.00 0.02 0.00 85 468.0
20260507231602 54 27 1.0 4.0 0.00 0.02 0.00 85 468.0
20260507231049 54 27 0.0 4.0 0.00 0.02 0.00 86 478.4
20260507225602 55 27 0.0 3.0 0.00 0.02 0.00 86 468.6
20260507225054 55 27 0.0 0.0 0.00 0.02 0.00 86 468.0
20260507223602 55 27 0.0 0.0 0.00 0.03 0.00 87 468.0
20260507222605 55 27 0.0 0.0 0.00 0.03 0.00 88 468.4
20260507221602 55 27 0.0 0.0 0.00 0.03 0.00 88 463.5
20260507220604 54 27 0.0 0.0 0.00 0.03 0.00 89 467.2
20260507215603 54 27 0.0 0.0 0.00 0.03 0.03 89 484.3
20260507214602 54 27 0.0 0.0 0.00 0.03 0.03 90 478.5
20260507213604 54 27 0.0 0.0 0.00 0.03 0.03 89 468.1
20260507212602 55 27 0.0 0.0 0.00 0.03 0.03 89 468.0
20260507211602 55 27 0.0 0.0 0.00 0.03 0.03 87 467.2
20260507210602 55 27 0.0 0.0 0.00 0.03 0.03 86 468.6
20260507205603 56 27 0.0 0.0 0.00 0.03 0.03 86 468.1
20260507204602 56 27 0.0 0.0 0.00 0.03 0.03 86 516.4
20260507203602 56 27 0.0 0.0 0.00 0.03 0.03 85 464.7
20260507202602 56 27 1.0 5.0 0.00 0.03 0.03 85 505.0
20260507201602 57 27 0.0 0.0 0.00 0.03 0.03 84 480.2
20260507200603 57 27 0.0 0.0 0.00 0.03 0.03 84 468.0
20260507195603 57 27 0.0 0.0 0.00 0.03 0.03 83 463.5
20260507194602 58 27 0.0 0.0 0.00 0.03 0.03 83 468.2
20260507193602 58 27 0.0 0.0 0.00 0.03 0.03 83 461.0
20260507192602 58 27 0.0 3.0 0.00 0.03 0.03 84 466.5
20260507191602 59 27 0.0 0.0 0.00 0.03 0.03 87 468.0
20260507190602 59 27 0.0 0.0 0.00 0.03 0.03 87 482.2
20260507185602 60 27 0.0 0.0 0.00 0.03 0.03 86 467.4
20260507184602 60 27 0.0 0.0 0.00 0.03 0.03 85 464.3
20260507183602 60 27 0.0 0.0 0.00 0.04 0.03 83 468.3
20260507182602 61 27 0.0 0.0 0.00 0.08 0.03 83 467.9
20260507181603 61 27 0.0 0.0 0.00 0.09 0.03 82 468.0
20260507180602 61 27 0.0 0.0 0.00 0.09 0.03 81 478.4
20260507175603 61 27 0.0 0.0 0.00 0.09 0.03 78 468.0
20260507174603 61 27 0.0 0.0 0.00 0.09 0.03 80 468.3
20260507173601 61 27 0.0 0.0 0.00 0.09 0.03 79 468.6
20260507172604 61 27 0.0 5.0 0.00 0.09 0.03 80 468.0
20260507171603 61 27 0.0 4.0 0.00 0.09 0.03 80 467.9
20260507170604 61 26 1.0 8.0 0.02 0.09 0.03 82 484.3
20260507165604 61 40 1.0 6.0 0.02 0.09 0.03 83 447.2
20260507164605 61 0 2.0 5.0 0.02 0.09 0.03 86 483.4
20260507163604 60 0 1.0 5.0 0.02 0.09 0.03 87 608.2
20260507162603 60 38 2.0 6.0 0.02 0.09 0.03 87 468.0
20260507161603 61 9 2.0 6.0 0.02 0.09 0.02 85 489.2
20260507160603 61 326 3.0 7.0 0.01 0.08 0.02 82 467.9
20260507155604 63 252 0.0 2.0 0.00 0.09 0.01 75 504.2
20260507154604 65 192 0.0 0.0 0.00 0.09 0.01 63 468.0
20260507153604 65 192 0.0 0.0 0.00 0.09 0.01 64 468.0
20260507152604 65 192 1.0 5.0 0.00 0.09 0.01 62 467.4
20260507151602 65 183 3.0 6.0 0.00 0.09 0.01 60 468.0
20260507150603 66 206 3.0 8.0 0.00 0.09 0.01 57 478.4
20260507145603 66 192 6.0 13.0 0.00 0.09 0.01 54 465.6
20260507144603 67 172 4.0 14.0 0.00 0.09 0.01 54 487.6
20260507143603 67 182 7.0 14.0 0.00 0.09 0.01 55 468.5
20260507142603 69 190 6.0 16.0 0.00 0.09 0.01 49 468.0
20260507141604 68 171 6.0 14.0 0.00 0.09 0.01 57 468.3
20260507140603 68 185 6.0 13.0 0.00 0.09 0.01 59 468.0
20260507135603 69 161 6.0 15.0 0.00 0.09 0.01 55 442.2
20260507134604 69 156 7.0 16.0 0.00 0.10 0.01 62 466.6
20260507133603 69 191 8.0 16.0 0.00 0.10 0.01 60 471.1
20260507133045 70 164 6.0 18.0 0.00 0.11 0.01 58 464.1
20260507131603 69 131 8.0 16.0 0.00 0.12 0.01 59 468.6
20260507130603 70 152 6.0 17.0 0.00 0.13 0.01 62 468.0
20260507125603 70 164 6.0 13.0 0.00 0.13 0.01 62 553.6
20260507124603 70 214 7.0 15.0 0.00 0.13 0.01 64 473.4
20260507123603 70 190 3.0 11.0 0.00 0.13 0.01 60 450.3
20260507122604 70 139 4.0 11.0 0.00 0.13 0.01 61 468.0
20260507121603 71 171 3.0 10.0 0.00 0.13 0.01 51 463.4
20260507120603 70 182 3.0 9.0 0.00 0.14 0.01 54 467.8
20260507115603 71 206 4.0 11.0 0.00 0.14 0.01 55 454.9
20260507114603 70 191 2.0 9.0 0.00 0.14 0.01 55 470.5
20260507113603 70 182 2.0 8.0 0.00 0.14 0.01 56 489.7
20260507112604 70 112 2.0 9.0 0.00 0.15 0.01 59 463.7
20260507111603 69 175 3.0 10.0 0.00 0.15 0.01 61 467.9
20260507111043 69 111 2.0 8.0 0.00 0.20 0.01 62 463.6
20260507105603 69 121 2.0 9.0 0.00 0.20 0.01 63 472.5
20260507104603 69 158 2.0 7.0 0.00 0.22 0.01 65 484.6
20260507103604 68 164 4.0 9.0 0.00 0.28 0.01 67 470.9
20260507102604 68 196 4.0 9.0 0.00 0.44 0.01 69 522.7
20260507101603 68 138 4.0 11.0 0.00 0.75 0.01 69 468.1
20260507100604 67 160 4.0 11.0 0.00 0.84 0.01 68 468.0
20260507100103 67 199 5.0 14.0 0.00 0.87 0.01 70 466.4
20260507094603 67 175 6.0 13.0 0.00 0.91 0.01 69 473.2
20260507093603 67 158 4.0 11.0 0.00 0.93 0.01 70 468.3
20260507092604 68 137 6.0 13.0 0.00 0.97 0.01 67 468.0
20260507091603 67 125 5.0 12.0 0.00 0.98 0.01 69 468.0
20260507090603 67 209 5.0 14.0 0.00 0.98 0.01 70 518.1
20260507085603 67 153 7.0 15.0 0.00 0.98 0.01 73 476.1
20260507084602 67 135 5.0 10.0 0.00 0.99 0.01 72 607.9
20260507083602 66 164 5.0 13.0 0.00 0.99 0.01 73 508.5
20260507082602 65 153 5.0 10.0 0.00 0.99 0.01 76 469.3
20260507081602 64 180 5.0 10.0 0.00 1.00 0.01 76 482.0
20260507080602 64 178 5.0 10.0 0.00 1.01 0.01 77 468.5
20260507075602 65 158 3.0 9.0 0.00 1.02 0.01 79 467.3
20260507075051 65 113 4.0 11.0 0.00 1.02 0.01 79 470.9
20260507073602 65 138 4.0 9.0 0.00 1.04 0.01 81 468.3
20260507072603 64 134 5.0 9.0 0.00 1.05 0.01 83 467.2
20260507071602 62 147 2.0 7.0 0.00 1.05 0.01 88 467.9
20260507070602 62 161 1.0 7.0 0.00 1.05 0.01 90 468.1
20260507065602 62 161 2.0 7.0 0.00 1.05 0.01 90 475.9
20260507064603 61 132 3.0 5.0 0.00 1.06 0.01 92 479.7
20260507063602 61 151 3.0 8.0 0.00 1.09 0.01 93 445.2
20260507062605 60 138 2.0 7.0 0.00 1.16 0.01 94 473.3
20260507061602 60 139 0.0 6.0 0.00 1.20 0.01 94 473.4
20260507060603 60 135 3.0 8.0 0.00 1.26 0.01 95 464.5
20260507055603 60 115 3.0 11.0 0.00 1.31 0.01 95 473.2
20260507054604 60 117 2.0 7.0 0.00 1.34 0.01 96 473.3
20260507053604 60 105 2.0 8.0 0.00 1.34 0.01 97 473.3
20260507052601 60 118 1.0 4.0 0.00 1.34 0.01 97 466.4
20260507051602 59 118 1.0 4.0 0.00 1.34 0.01 97 467.9
20260507050615 59 127 0.0 3.0 0.00 1.34 0.01 97 468.8
20260507045602 59 127 0.0 2.0 0.00 1.34 0.01 97 484.5
20260507044605 58 127 0.0 0.0 0.00 1.34 0.01 97 472.7
20260507044041 58 127 0.0 0.0 0.00 1.34 0.01 96 466.1
20260507042603 58 127 0.0 0.0 0.00 1.34 0.01 96 470.9
20260507041603 58 127 0.0 0.0 0.00 1.34 0.01 96 498.6
20260507040606 58 127 2.0 5.0 0.00 1.34 0.01 96 468.4
20260507040056 58 127 2.0 4.0 0.00 1.34 0.01 96 467.9
20260507034604 58 127 0.0 3.0 0.00 1.34 0.01 96 468.7
20260507033602 58 127 0.0 0.0 0.00 1.34 0.01 96 475.6
20260507032602 58 127 0.0 0.0 0.00 1.34 0.01 96 468.3
20260507031606 58 127 0.0 3.0 0.00 1.34 0.01 96 467.9
20260507030602 58 127 0.0 3.0 0.00 1.34 0.01 96 458.7
20260507025602 59 127 0.0 0.0 0.00 1.34 0.01 96 459.9
20260507024605 59 127 0.0 0.0 0.00 1.34 0.01 96 556.6
20260507023604 59 127 0.0 4.0 0.00 1.34 0.01 96 467.9
20260507022602 60 123 2.0 6.0 0.00 1.34 0.01 96 468.0